To NAV CANADA Home Page Login to a new session Search on AWWS site Feedback and Comments Disclaimer Vers la page française équivalente Tips FAQ What's new on the site To the Forecasts and Observations / NOTAM section To "File a Flight Plan" website Publications and other links Update of the User's profile FIC Telephone Numbers My Weather Data Folder Route Weather Data Regional Weather Data Local Weather Data To the Forecasts and Observations / NOTAM section
Request Generated 03/23/2017 at 00:14:17 UTC . Weather information available at that time is displayed.

METAR/TAF

PANGNIRTUNG/NU    (show WxCam)

LWIS CYXP 230000Z AUTO 10005KT 070V160 M18/M26 A2945=
LWIS CYXP 222300Z AUTO 08009KT M18/M25 A2945=
METAR CYXP 222200Z 07011G16KT 15SM SCT025 BKN200 M17/M25 A2944 RMK
SC3CI2 -15.1/-17.6/0/38 SNW CVR/MEDIUM PACK LAST STFD OBS/NEXT
231200 SLP974=

*** REMARK        : Forecast period has ended; this was the last TAF issued
*** REMARQUE : La période de prévision est échue; ceci était le dernier TAF qui a été émis
TAF CYXP 221838Z 2219/2222 07010KT P6SM BKN030 TEMPO 2219/2222 BKN020
RMK NXT FCST WILL BE ISSUED AT 231245Z=
Your time UTC time
Weather data provided by Environment Canada and NAV CANADA